Simultaneous Nadir Overpasses (SNOs) Predictions

Prediction of SNOs between GOES-17 and AQUA Satellite Orbit:

Table of predicted SNOs for the next 14.0 days since TLE Epoch: 6/6/2020
Index Date Time (GOES-17) GOES-17 Lat,Lon AQUA Lat,Lon Distance(km) Time Diff (sec)
1 06/06/2020 10:36:53 -0.00,-137.18 -0.30,-135.67 170.74 80
2 06/06/2020 22:58:18 0.00,-137.17 -0.77,-140.87 420.31 80
3 06/08/2020 22:46:06 0.01,-137.15 -0.18,-137.91 86.36 80
4 06/10/2020 22:36:35 0.01,-137.13 0.47,-134.95 247.54 80
5 06/11/2020 10:57:49 -0.00,-137.13 0.66,-140.10 339.15 80
6 06/13/2020 10:45:39 -0.00,-137.10 0.01,-137.15 5.64 80
7 06/15/2020 10:30:48 -0.00,-137.08 -0.64,-134.20 327.49 80
8 06/15/2020 22:52:11 0.00,-137.06 -0.47,-139.39 264.00 80
9 06/17/2020 22:42:39 0.00,-137.03 0.13,-136.43 68.42 80
10 06/19/2020 22:30:28 -0.00,-136.99 0.73,-133.46 400.10 80




NCC Satellite Simultaneous Nadir Overpasses (SNOs) Prediction Service
